EW9515 Weather Reports


Display with metric or nautical units.
time (UTC)temp
F
wind
direction
speed
MPH
gust
MPH
rain 1hr
in
rain 24hr
in
rain mn
in
humidity
%
barometer
mb
20260902130427 0 0.0 0.0 0.00 0.00 0.00
20260902125422 0 0.0 1.0 0.00 0.00 0.00
20260902124440 0 0.0 0.0 0.00 0.00 0.00
20260902123427 0 0.0 0.0 0.00 0.00 0.00
20260902122422 0 0.0 1.0 0.00 0.00 0.00
20260902121430 0 0.0 1.0 0.00 0.00 0.00
20260902120427 0 0.0 1.0 0.00 0.00 0.00
20260902115417 0 0.0 0.0 0.00 0.00 0.00
20260902114430 0 0.0 0.0 0.00 0.00 0.00
20260902113427 0 0.0 1.0 0.00 0.00 0.00
20260902112421 0 0.0 1.0 0.00 0.00 0.00
20260902111452 0 0.0 1.0 0.00 0.00 0.00
20260902110429 0 0.0 0.0 0.00 0.00 0.00
20260902105502 0 0.0 1.0 0.00 0.00 0.00
20260902104434 0 23 1.0 2.0 0.00 0.00 0.00
20260902103428 0 0.0 1.0 0.00 0.00 0.00
20260902102426 0 0.0 1.0 0.00 0.00 0.00
20260902101428 0 0.0 1.0 0.00 0.00 0.00
20260902100426 0 0.0 0.0 0.00 0.00 0.00
20260902095417 0 0.0 2.0 0.00 0.00 0.00
20260902094432 0 0.0 1.0 0.00 0.00 0.00
20260902092416 0 23 1.0 3.0 0.00 0.00 0.00
20260902091429 0 0.0 0.0 0.00 0.00 0.00
20260902090430 0 23 1.0 2.0 0.00 0.00 0.00
20260902085549 0 0.0 1.0 0.00 0.00 0.00
20260902060429 0 0 4.0 9.0 0.00 0.00 0.00
20260902055418 0 0 6.0 10.0 0.00 0.00 0.00
20260902054437 0 338 7.0 11.0 0.00 0.00 0.00
20260902053429 0 0 4.0 7.0 0.00 0.00 0.00
20260902052419 0 23 8.0 13.0 0.00 0.00 0.00
20260902051429 0 23 5.0 6.0 0.00 0.00 0.00
20260902050429 0 0 4.0 6.0 0.00 0.00 0.00
20260902045418 0 45 6.0 9.0 0.00 0.00 0.00
20260902044431 0 23 7.0 10.0 0.00 0.00 0.00
20260902043430 0 23 7.0 9.0 0.00 0.00 0.00
20260902042419 0 45 9.0 13.0 0.00 0.00 0.00
20260902041432 0 23 7.0 9.0 0.00 0.00 0.00
20260902040429 0 23 6.0 10.0 0.00 0.00 0.00
20260902035418 0 0 4.0 5.0 0.00 0.00 0.00
20260902034431 0 0 3.0 4.0 0.00 0.00 0.00
20260902033429 0 23 2.0 4.0 0.00 0.00 0.00
20260902032438 0 315 1.0 4.0 0.00 0.00 0.00
20260902031451 0 315 2.0 7.0 0.00 0.00 0.00
20260902030428 0 180 2.0 5.0 0.00 0.00 0.00
20260902025418 0 23 3.0 6.0 0.00 0.00 0.00
20260902024437 0 23 4.0 7.0 0.00 0.00 0.00
20260902023428 0 338 3.0 4.0 0.00 0.00 0.00
20260902022417 0 293 3.0 9.0 0.00 0.00 0.00
20260902021437 0 45 3.0 6.0 0.00 0.00 0.00
20260902020428 0 203 2.0 3.0 0.00 0.00 0.00
20260902015422 0 338 5.0 6.0 0.00 0.00 0.00
20260902014429 0 23 5.0 7.0 0.00 0.00 0.00
20260902013428 0 248 1.0 2.0 0.00 0.00 0.00
20260902012417 0 338 2.0 4.0 0.00 0.00 0.00
20260902011431 0 0 3.0 6.0 0.00 0.00 0.00
20260902010428 0 248 1.0 2.0 0.00 0.00 0.00
20260902005418 0 23 3.0 8.0 0.00 0.00 0.00
20260902004430 0 203 2.0 4.0 0.00 0.00 0.00
20260902003428 0 0 3.0 6.0 0.00 0.00 0.00
20260902002418 0 338 1.0 3.0 0.00 0.00 0.00
20260902001432 0 0 1.0 4.0 0.00 0.00 0.00
20260902000429 0 0 3.0 6.0 0.00 0.00 0.00
20260901235417 0 338 3.0 5.0 0.00 0.00 0.00
20260901234431 0 23 4.0 7.0 0.00 0.00 0.00
20260901233448 0 338 3.0 7.0 0.00 0.00 0.00
20260901232438 0 338 3.0 5.0 0.00 0.00 0.00
20260901231431 0 315 4.0 8.0 0.00 0.00 0.00
20260901230428 0 248 2.0 3.0 0.00 0.00 0.00
20260901225422 0 23 1.0 3.0 0.00 0.00 0.00
20260901224431 0 315 2.0 4.0 0.00 0.00 0.00
20260901223428 0 0 1.0 2.0 0.00 0.00 0.00
20260901222458 0 0 1.0 2.0 0.00 0.00 0.00
20260901221435 0 45 1.0 2.0 0.00 0.00 0.00
20260901220428 0 0 1.0 2.0 0.00 0.00 0.00
20260901215417 0 0.0 2.0 0.00 0.00 0.00
20260901214429 0 0.0 1.0 0.00 0.00 0.00
20260901213428 0 0.0 1.0 0.00 0.00 0.00
20260901212417 0 0.0 1.0 0.00 0.00 0.00
20260901211433 0 0.0 0.0 0.00 0.00 0.00
20260901210428 0 45 1.0 1.0 0.00 0.00 0.00
20260901205417 0 0.0 0.0 0.00 0.00 0.00
20260901204428 0 0.0 1.0 0.00 0.00 0.00
20260901203427 0 0.0 1.0 0.00 0.00 0.00
20260901202417 0 0.0 0.0 0.00 0.00 0.00
20260901201430 0 0.0 1.0 0.00 0.00 0.00
20260901200448 0 0.0 1.0 0.00 0.00 0.00
20260901195442 0 0.0 0.0 0.00 0.00 0.00
20260901194434 0 0.0 1.0 0.00 0.00 0.00
20260901193427 0 0.0 1.0 0.00 0.00 0.00
20260901192417 0 0.0 0.0 0.00 0.00 0.00
20260901191449 0 45 1.0 2.0 0.00 0.00 0.00
20260901190427 0 0.0 1.0 0.00 0.00 0.00
20260901185422 0 0.0 0.0 0.00 0.00 0.00
20260901184450 0 45 1.0 2.0 0.00 0.00 0.00
20260901183428 0 0.0 0.0 0.00 0.00 0.00
20260901182417 0 0.0 0.0 0.00 0.00 0.00
20260901181429 0 0.0 0.0 0.00 0.00 0.00
20260901180426 0 0.0 1.0 0.00 0.00 0.00
20260901175436 0 0.0 1.0 0.00 0.00 0.00
20260901174429 0 0.0 1.0 0.00 0.00 0.00
20260901173427 0 0.0 0.0 0.00 0.00 0.00
20260901172417 0 0.0 0.0 0.00 0.00 0.00
20260901171430 0 0.0 0.0 0.00 0.00 0.00
20260901170432 0 0.0 0.0 0.00 0.00 0.00
20260901165421 0 0.0 0.0 0.00 0.00 0.00
20260901164430 0 0.0 0.0 0.00 0.00 0.00
20260901163430 0 0.0 1.0 0.00 0.00 0.00
20260901162419 0 0.0 0.0 0.00 0.00 0.00
20260901161432 0 0.0 0.0 0.00 0.00 0.00
20260901160429 0 0.0 0.0 0.00 0.00 0.00
20260901155418 0 0.0 0.0 0.00 0.00 0.00
20260901154431 0 0.0 1.0 0.00 0.00 0.00
20260901153427 0 0.0 0.0 0.00 0.00 0.00
20260901152418 0 0.0 0.0 0.00 0.00 0.00
20260901151431 0 0.0 1.0 0.00 0.00 0.00
20260901150429 0 0.0 0.0 0.00 0.00 0.00
20260901145418 0 0.0 0.0 0.00 0.00 0.00
20260901144431 0 0.0 0.0 0.00 0.00 0.00
20260901143428 0 0.0 0.0 0.00 0.00 0.00
20260901142418 0 45 1.0 1.0 0.00 0.00 0.00
20260901141431 0 0.0 0.0 0.00 0.00 0.00
20260901140430 0 0.0 0.0 0.00 0.00 0.00
20260901135417 0 0.0 0.0 0.00 0.00 0.00
20260901134449 0 0.0 0.0 0.00 0.00 0.00
20260901133433 0 0.0 0.0 0.00 0.00 0.00
20260901132437 0 0.0 0.0 0.00 0.00 0.00
20260901131429 0 0.0 0.0 0.00 0.00 0.00